DW4075 Weather Reports


time (UTC)temp
C
wind
direction
speed
KPH
gust
KPH
rain 1hr
cm
rain 24hr
cm
rain mn
cm
humidity
%
barometer
mb
20260508024403 14 286 4.8 16.1 0.00 0.00 0.00 19 1018.9
20260508023903 15 300 3.2 8.0 0.00 0.00 0.00 18 1019.3
20260508023404 15 300 4.8 8.0 0.00 0.00 0.00 17 1019.4
20260508022854 15 300 4.8 9.7 0.00 0.00 0.00 17 1019.6
20260508022346 16 300 6.4 9.7 0.00 0.00 0.00 17 1019.7
20260508021844 16 302 8.0 12.9 0.00 0.00 0.00 16 1019.7
20260508021341 16 305 8.0 12.9 0.00 0.00 0.00 16 1019.7
20260508020835 16 313 4.8 11.3 0.00 0.00 0.00 14 1020.0
20260508020333 17 69 3.2 8.0 0.00 0.00 0.00 14 1020.4
20260508015836 17 69 1.6 6.4 0.00 0.00 0.00 14 1020.7
20260508015556 18 69 3.2 8.0 0.00 0.00 0.00 14 1020.8
20260508014831 18 69 1.6 8.0 0.00 0.00 0.00 13 1021.2
20260508014559 18 69 1.6 4.8 0.00 0.00 0.00 13 1021.3
20260508013831 19 69 1.6 6.4 0.00 0.00 0.00 12 1021.6
20260508013332 20 69 0.0 6.4 0.00 0.00 0.00 12 1021.8
20260508012834 20 69 1.6 6.4 0.00 0.00 0.00 13 1022.1
20260508012331 20 69 1.6 6.4 0.00 0.00 0.00 12 1022.2
20260508011831 20 69 1.6 6.4 0.00 0.00 0.00 11 1022.3
20260508011331 20 69 3.2 6.4 0.00 0.00 0.00 11 1022.2
20260508011055 21 69 3.2 9.7 0.00 0.00 0.00 11 1022.3
20260508010323 21 69 4.8 11.3 0.00 0.00 0.00 11 1022.5
20260508010047 21 71 6.4 11.3 0.00 0.00 0.00 11 1022.7
20260508005316 21 74 6.4 16.1 0.00 0.00 0.00 10 1022.5
20260508005036 21 90 6.4 16.1 0.00 0.00 0.00 10 1022.9
20260508004300 21 100 4.8 12.9 0.00 0.00 0.00 10 1023.0
20260508004237 21 130 6.4 17.7 0.00 0.00 0.00 10 1023.2
20260508003252 21 142 8.0 17.7 0.00 0.00 0.00 11 1023.4
20260508002741 22 131 6.4 12.9 0.00 0.00 0.00 10 1023.6
20260508002239 22 142 6.4 12.9 0.00 0.00 0.00 11 1023.9
20260508001954 22 138 6.4 16.1 0.00 0.00 0.00 10 1023.9
20260508001223 22 141 8.0 16.1 0.00 0.00 0.00 10 1024.0
20260508000950 22 162 9.7 17.7 0.00 0.00 0.00 11 1024.1
20260508000215 22 167 9.7 17.7 0.00 0.00 0.00 10 1024.2
20260507235713 22 159 9.7 20.9 0.00 0.00 0.00 10 1024.5
20260507235211 23 177 8.0 20.9 0.00 0.00 0.00 10 1025.0
20260507234710 23 207 4.8 16.1 0.00 0.00 0.00 11 1025.1
20260507234206 23 213 6.4 16.1 0.00 0.00 0.00 11 1025.2
20260507233703 23 166 8.0 19.3 0.00 0.00 0.00 11 1025.2
20260507233201 23 189 8.0 19.3 0.00 0.00 0.00 11 1025.2
20260507232700 23 221 8.0 16.1 0.00 0.00 0.00 11 1025.1
20260507232204 23 227 8.0 16.1 0.00 0.00 0.00 11 1025.5
20260507231701 23 214 8.0 16.1 0.00 0.00 0.00 12 1025.6
20260507231159 23 147 8.0 16.1 0.00 0.00 0.00 11 1025.7
20260507230915 23 248 6.4 16.1 0.00 0.00 0.00 12 1025.8
20260507230152 23 165 6.4 16.1 0.00 0.00 0.00 14 1026.1
20260507225650 23 207 6.4 12.9 0.00 0.00 0.00 13 1025.8
20260507225149 23 197 6.4 14.5 0.00 0.00 0.00 14 1025.8
20260507224646 23 200 8.0 14.5 0.00 0.00 0.00 13 1025.9
20260507224147 23 155 8.0 16.1 0.00 0.00 0.00 13 1025.8
20260507223644 22 165 8.0 16.1 0.00 0.00 0.00 15 1025.6
20260507223143 22 234 8.0 20.9 0.00 0.00 0.00 14 1025.6
20260507222644 22 257 8.0 20.9 0.00 0.00 0.00 15 1025.8
20260507222408 22 185 8.0 24.1 0.00 0.00 0.00 16 1025.6
20260507221905 22 175 8.0 24.1 0.00 0.00 0.00 16 1025.8
20260507221142 22 145 8.0 20.9 0.00 0.00 0.00 17 1025.8
20260507220639 21 181 8.0 20.9 0.00 0.00 0.00 18 1025.6
20260507220400 21 136 6.4 14.5 0.00 0.00 0.00 18 1025.7
20260507215634 21 193 6.4 14.5 0.00 0.00 0.00 18 1025.8
20260507215131 21 174 6.4 14.5 0.00 0.00 0.00 19 1025.9
20260507214856 22 188 9.7 16.1 0.00 0.00 0.00 19 1026.3
20260507214130 22 202 11.3 20.9 0.00 0.00 0.00 20 1026.3
20260507213625 22 192 11.3 22.5 0.00 0.00 0.00 20 1026.4
20260507213119 22 178 9.7 22.5 0.00 0.00 0.00 20 1026.4
20260507212832 22 192 8.0 20.9 0.00 0.00 0.00 21 1026.4
20260507212105 21 130 9.7 16.1 0.00 0.00 0.00 22 1026.4
20260507211824 21 141 11.3 22.5 0.00 0.00 0.00 22 1026.4
20260507211054 22 192 11.3 22.5 0.00 0.00 0.00 22 1026.9
20260507210542 21 236 6.4 16.1 0.00 0.00 0.00 22 1026.8
20260507210036 21 149 4.8 16.1 0.00 0.00 0.00 21 1026.6
20260507205531 21 117 8.0 20.9 0.00 0.00 0.00 21 1027.0
20260507205030 21 171 8.0 20.9 0.00 0.00 0.00 20 1027.2
20260507204530 21 181 6.4 11.3 0.00 0.00 0.00 22 1027.2
20260507204031 21 248 6.4 14.5 0.00 0.00 0.00 22 1026.8
20260507203531 21 149 8.0 16.1 0.00 0.00 0.00 20 1026.9
20260507203031 21 114 8.0 16.1 0.00 0.00 0.00 18 1026.9
20260507202530 21 142 4.8 14.5 0.00 0.00 0.00 19 1027.0
20260507202032 21 101 6.4 12.9 0.00 0.00 0.00 19 1027.2
20260507201524 21 306 8.0 17.7 0.00 0.00 0.00 19 1027.0
20260507201022 21 317 6.4 17.7 0.00 0.00 0.00 19 1027.3
20260507200519 20 242 8.0 17.7 0.00 0.00 0.00 20 1027.2
20260507200016 20 182 9.7 17.7 0.00 0.00 0.00 19 1027.2
20260507195516 20 109 8.0 16.1 0.00 0.00 0.00 19 1027.2
20260507195012 20 138 8.0 16.1 0.00 0.00 0.00 20 1027.3
20260507194512 20 143 6.4 12.9 0.00 0.00 0.00 20 1027.2
20260507194010 20 92 4.8 12.9 0.00 0.00 0.00 21 1027.0
20260507193508 19 150 4.8 12.9 0.00 0.00 0.00 22 1026.7
20260507193007 19 155 4.8 9.7 0.00 0.00 0.00 22 1026.8
20260507192504 20 155 6.4 9.7 0.00 0.00 0.00 21 1027.2
20260507192003 20 154 4.8 9.7 0.00 0.00 0.00 22 1027.4
20260507191456 19 65 3.2 11.3 0.00 0.00 0.00 23 1027.3
20260507190950 19 63 4.8 14.5 0.00 0.00 0.00 23 1027.3
20260507190450 19 69 8.0 14.5 0.00 0.00 0.00 22 1027.3
20260507185946 19 59 6.4 14.5 0.00 0.00 0.00 22 1027.3
20260507185445 19 70 4.8 14.5 0.00 0.00 0.00 23 1027.2
20260507184944 18 69 6.4 16.1 0.00 0.00 0.00 22 1027.3
20260507184439 18 92 6.4 16.1 0.00 0.00 0.00 24 1027.2
20260507183938 18 99 4.8 12.9 0.00 0.00 0.00 23 1027.0
20260507183435 18 57 6.4 16.1 0.00 0.00 0.00 23 1027.0
20260507182934 18 49 6.4 16.1 0.00 0.00 0.00 23 1026.9
20260507182431 17 45 6.4 16.1 0.00 0.00 0.00 25 1026.7
20260507181933 17 86 8.0 16.1 0.00 0.00 0.00 24 1026.7
20260507181430 17 71 6.4 17.7 0.00 0.00 0.00 25 1026.6
20260507180929 17 38 6.4 17.7 0.00 0.00 0.00 25 1026.6
20260507180419 17 57 6.4 16.1 0.00 0.00 0.00 25 1026.4
20260507175913 17 15 6.4 16.1 0.00 0.00 0.00 25 1026.4
20260507175414 17 24 8.0 17.7 0.00 0.00 0.00 26 1026.7
20260507174911 17 40 9.7 19.3 0.00 0.00 0.00 27 1026.8
20260507174413 17 49 8.0 19.3 0.00 0.00 0.00 28 1026.7
20260507173909 16 46 8.0 17.7 0.00 0.00 0.00 29 1026.8
20260507173408 16 39 8.0 20.9 0.00 0.00 0.00 29 1026.7
20260507172907 16 53 8.0 20.9 0.00 0.00 0.00 29 1026.7
20260507172406 16 15 8.0 16.1 0.00 0.00 0.00 28 1026.7
20260507171903 16 36 8.0 20.9 0.00 0.00 0.00 29 1026.7
20260507171404 15 45 8.0 20.9 0.00 0.00 0.00 30 1026.4
20260507170903 15 51 8.0 19.3 0.00 0.00 0.00 30 1026.6
20260507170403 15 0 9.7 19.3 0.00 0.00 0.00 29 1026.6
20260507165903 15 51 8.0 19.3 0.00 0.00 0.00 30 1026.4
20260507165403 15 49 9.7 19.3 0.00 0.00 0.00 30 1026.2
20260507164903 15 41 9.7 17.7 0.00 0.00 0.00 29 1026.2
20260507164403 15 48 9.7 25.7 0.00 0.00 0.00 29 1026.4
20260507163908 15 11 9.7 25.7 0.00 0.00 0.00 29 1026.2
20260507163405 14 9 9.7 19.3 0.00 0.00 0.00 29 1025.9
20260507162858 14 29 11.3 19.3 0.00 0.00 0.00 29 1026.1
20260507162348 13 33 11.3 19.3 0.00 0.00 0.00 29 1025.8
20260507161842 13 48 11.3 19.3 0.00 0.00 0.00 29 1025.7
20260507161603 13 5 11.3 22.5 0.00 0.00 0.00 29 1025.8
20260507160835 13 49 11.3 22.5 0.00 0.00 0.00 30 1025.6
20260507160559 12 355 11.3 29.0 0.00 0.00 0.00 34 1025.2
20260507155831 12 31 9.7 29.0 0.00 0.00 0.00 34 1025.0
20260507155324 12 39 9.7 17.7 0.00 0.00 0.00 40 1024.9
20260507154823 12 5 11.3 20.9 0.00 0.00 0.00 40 1024.7
20260507154323 11 45 11.3 20.9 0.00 0.00 0.00 40 1024.7
20260507153823 11 20 9.7 17.7 0.00 0.00 0.00 43 1024.4
20260507153322 11 58 11.3 22.5 0.00 0.00 0.00 44 1024.2
20260507153047 11 55 11.3 22.5 0.00 0.00 0.00 45 1024.0
20260507152536 11 38 11.3 19.3 0.00 0.00 0.00 46 1024.0
20260507152037 10 26 9.7 16.1 0.00 0.00 0.00 47 1023.8
20260507151316 10 30 9.7 17.7 0.00 0.00 0.00 48 1023.8
20260507150815 10 53 8.0 17.7 0.00 0.00 0.00 49 1023.4
20260507150314 10 47 8.0 16.1 0.00 0.00 0.00 52 1023.2
20260507145809 9 49 6.4 14.5 0.00 0.00 0.00 52 1023.3
20260507145307 9 38 4.8 12.9 0.00 0.00 0.00 54 1023.2
20260507144807 9 42 6.4 11.3 0.00 0.00 0.00 54 1023.0
20260507144534 8 42 4.8 11.3 0.00 0.00 0.00 56 1022.9
20260507143806 8 64 3.2 11.3 0.00 0.00 0.00 56 1022.5
20260507143307 8 71 3.2 11.3 0.00 0.00 0.00 58 1022.3
20260507143025 8 56 6.4 11.3 0.00 0.00 0.00 58 1022.2
20260507142306 7 56 6.4 12.9 0.00 0.00 0.00 57 1022.1
20260507141804 7 53 8.0 14.5 0.00 0.00 0.00 59 1021.9
20260507141300 7 51 8.0 16.1 0.00 0.00 0.00 60 1021.8
20260507140759 7 42 8.0 16.1 0.00 0.00 0.00 61 1021.6
20260507140258 6 44 6.4 12.9 0.00 0.00 0.00 63 1021.3
20260507135758 6 23 6.4 14.5 0.00 0.00 0.00 65 1021.0
20260507135255 5 47 6.4 14.5 0.00 0.00 0.00 66 1020.6
20260507134743 5 33 4.8 11.3 0.00 0.00 0.00 68 1020.4
20260507134242 5 34 4.8 11.3 0.00 0.00 0.00 70 1019.9
20260507133738 4 22 4.8 11.3 0.00 0.00 0.00 72 1019.4
20260507133238 3 9 3.2 9.7 0.00 0.00 0.00 75 1019.1
20260507132738 3 355 3.2 9.7 0.00 0.00 0.00 78 1018.7
20260507132238 2 355 3.2 9.7 0.00 0.00 0.00 81 1018.0
20260507131737 2 355 1.6 8.0 0.00 0.00 0.00 84 1017.6
20260507131235 1 355 1.6 8.0 0.00 0.00 0.00 87 1017.0
20260507130733 0 355 0.0 6.4 0.00 0.00 0.00 89 1016.3
20260507130232 0 355 0.0 4.8 0.00 0.00 0.00 91 1015.6
20260507125733 -1 355 0.0 4.8 0.00 0.00 0.00 92 1014.9
20260507125231 -1 355 0.0 3.2 0.00 0.00 0.00 90 1014.2
20260507124729 -2 355 0.0 1.6 0.00 0.00 0.00 89 1013.8
20260507124224 -2 355 0.0 3.2 0.00 0.00 0.00 88 1013.4
20260507123718 -2 355 0.0 3.2 0.00 0.00 0.00 87 1013.2
20260507123211 -3 355 0.0 1.6 0.00 0.00 0.00 86 1013.1
20260507122705 -3 355 0.0 1.6 0.00 0.00 0.00 85 1012.9
20260507122201 -3 355 1.6 3.2 0.00 0.00 0.00 84 1012.9
20260507121702 -3 355 1.6 3.2 0.00 0.00 0.00 84 1012.8
20260507121200 -3 355 0.0 3.2 0.00 0.00 0.00 83 1012.8
20260507120700 -3 355 0.0 3.2 0.00 0.00 0.00 83 1012.9
20260507120153 -3 355 1.6 4.8 0.00 0.00 0.00 83 1012.8
20260507115654 -2 355 3.2 6.4 0.00 0.00 0.00 83 1012.9
20260507115147 -2 355 3.2 6.4 0.00 0.00 0.00 84 1012.8
20260507114644 -3 355 1.6 6.4 0.00 0.00 0.00 84 1012.7
20260507114142 -3 355 1.6 4.8 0.00 0.00 0.00 84 1012.7
20260507113641 -3 355 1.6 4.8 0.00 0.00 0.00 84 1012.7
20260507113402 -2 355 1.6 3.2 0.00 0.00 0.00 83 1012.8
20260507112637 -2 355 1.6 3.2 0.00 0.00 0.00 83 1012.9
20260507112136 -2 355 1.6 3.2 0.00 0.00 0.00 83 1012.9
20260507111631 -2 355 1.6 4.8 0.00 0.00 0.00 83 1012.8
20260507111131 -2 355 3.2 8.0 0.00 0.00 0.00 84 1012.8
20260507110632 -2 355 3.2 8.0 0.00 0.00 0.00 84 1012.6
20260507110132 -2 355 1.6 6.4 0.00 0.00 0.00 84 1012.5
20260507105631 -2 355 1.6 3.2 0.00 0.00 0.00 84 1012.6
20260507105131 -2 355 1.6 3.2 0.00 0.00 0.00 84 1012.6
20260507104630 -2 355 1.6 6.4 0.00 0.00 0.00 84 1012.5
20260507104126 -2 355 3.2 6.4 0.00 0.00 0.00 85 1012.6
20260507103620 -2 355 1.6 6.4 0.00 0.00 0.00 84 1012.6
20260507103118 -2 355 0.0 3.2 0.00 0.00 0.00 83 1012.5
20260507102617 -2 355 1.6 3.2 0.00 0.00 0.00 82 1012.8
20260507102118 -2 355 1.6 3.2 0.00 0.00 0.00 83 1012.8
20260507101609 -2 355 1.6 3.2 0.00 0.00 0.00 82 1012.9
20260507101108 -2 355 1.6 3.2 0.00 0.00 0.00 83 1012.9
20260507100607 -2 355 0.0 1.6 0.00 0.00 0.00 83 1012.9
20260507100104 -2 355 0.0 0.0 0.00 0.00 0.00 83 1012.9
20260507095804 -1 355 0.0 0.0 0.00 0.00 0.00 84 1013.3
20260507095757 -1 355 0.0 0.0 0.00 0.00 0.00 84 1013.2
20260507094559 -1 355 0.0 1.6 0.00 0.00 0.00 84 1013.2
20260507094057 -1 355 0.0 1.6 0.00 0.00 0.00 84 1013.1
20260507093554 -1 355 0.0 1.6 0.00 0.00 0.00 83 1012.9
20260507093051 -1 355 0.0 1.6 0.00 0.00 0.00 82 1012.9
20260507092811 -1 355 0.0 3.2 0.00 0.00 0.00 81 1012.9
20260507092043 -1 355 0.0 3.2 0.00 0.00 0.00 80 1013.1
20260507091543 -1 355 0.0 0.0 0.00 0.00 0.00 79 1013.1
20260507091040 -1 355 0.0 0.0 0.00 0.00 0.00 80 1012.9
20260507090541 -1 355 0.0 0.0 0.00 0.00 0.00 79 1013.1
20260507090031 -1 355 0.0 3.2 0.00 0.00 0.00 79 1013.2
20260507085531 -1 355 1.6 3.2 0.00 0.00 0.00 80 1013.2
20260507085030 -1 355 0.0 3.2 0.00 0.00 0.00 81 1013.2
20260507084531 -1 355 0.0 1.6 0.00 0.00 0.00 81 1013.1
20260507084027 -1 355 0.0 0.0 0.00 0.00 0.00 80 1013.2
20260507083522 -1 355 0.0 0.0 0.00 0.00 0.00 79 1013.2
20260507083019 -1 355 0.0 0.0 0.00 0.00 0.00 78 1013.3
20260507082508 0 355 0.0 0.0 0.00 0.00 0.00 78 1013.6
20260507082005 0 355 0.0 1.6 0.00 0.00 0.00 79 1013.6
20260507081503 0 355 0.0 1.6 0.00 0.00 0.00 78 1013.4
20260507081003 0 355 0.0 1.6 0.00 0.00 0.00 78 1013.4
20260507080503 0 355 0.0 3.2 0.00 0.00 0.00 78 1013.4
20260507080222 0 355 1.6 3.2 0.00 0.00 0.00 79 1013.4
20260507075502 0 355 0.0 3.2 0.00 0.00 0.00 79 1013.4
20260507075220 0 355 0.0 3.2 0.00 0.00 0.00 79 1013.4
20260507074454 0 355 0.0 0.0 0.00 0.00 0.00 80 1013.3
20260507073939 0 355 0.0 0.0 0.00 0.00 0.00 78 1013.3
20260507073432 0 355 0.0 0.0 0.00 0.00 0.00 78 1013.2
20260507072931 0 355 0.0 0.0 0.00 0.00 0.00 77 1013.4
20260507072411 0 355 0.0 0.0 0.00 0.00 0.00 76 1013.4
20260507071904 0 355 0.0 0.0 0.00 0.00 0.00 76 1013.4
20260507071623 0 355 0.0 0.0 0.00 0.00 0.00 76 1013.7
20260507070904 0 355 0.0 0.0 0.00 0.00 0.00 76 1013.7
20260507070403 0 355 0.0 0.0 0.00 0.00 0.00 74 1013.8
20260507070118 0 355 0.0 0.0 0.00 0.00 0.00 75 1013.8
20260507065605 0 355 0.0 4.8 0.00 0.00 0.00 76 1013.9
20260507064837 0 355 0.0 4.8 0.00 0.00 0.00 75 1013.9
20260507064334 0 355 0.0 3.2 0.00 0.00 0.00 76 1013.9
20260507063832 0 355 0.0 1.6 0.00 0.00 0.00 74 1013.8
20260507063330 1 355 0.0 0.0 0.00 0.00 0.00 72 1013.9
20260507063046 1 355 0.0 1.6 0.00 0.00 0.00 72 1014.0
20260507062319 1 355 0.0 1.6 0.00 0.00 0.00 72 1013.9
20260507061818 1 355 0.0 0.0 0.00 0.00 0.00 73 1013.9
20260507061317 1 355 0.0 0.0 0.00 0.00 0.00 73 1014.0
20260507060810 1 355 0.0 0.0 0.00 0.00 0.00 72 1014.0
20260507060304 1 355 1.6 0.0 0.00 0.00 0.00 71 1014.2
20260507060026 2 355 1.6 1.6 0.00 0.00 0.00 70 1014.5
20260507055646 2 355 0.0 1.6 0.00 0.00 0.00 70 1014.4
20260507055634 2 355 0.0 3.2 0.00 0.00 0.00 71 1014.5
20260507054303 2 355 0.0 3.2 0.00 0.00 0.00 70 1014.6
20260507054019 2 355 0.0 3.2 0.00 0.00 0.00 70 1014.5
20260507053516 2 355 1.6 3.2 0.00 0.00 0.00 70 1014.6
20260507053018 3 355 1.6 3.2 0.00 0.00 0.00 69 1014.8
20260507052250 3 355 0.0 4.8 0.00 0.00 0.00 69 1014.9
20260507051744 3 355 0.0 4.8 0.00 0.00 0.00 69 1015.1
20260507051242 3 355 0.0 6.4 0.00 0.00 0.00 70 1015.0
20260507050741 3 355 1.6 9.7 0.00 0.00 0.00 69 1015.0
20260507050239 3 355 1.6 9.7 0.00 0.00 0.00 68 1015.1
20260507045738 3 355 0.0 6.4 0.00 0.00 0.00 67 1015.3
20260507045506 3 355 0.0 6.4 0.00 0.00 0.00 66 1015.5
20260507044732 4 355 0.0 8.0 0.00 0.00 0.00 65 1015.5
20260507044504 4 355 0.0 8.0 0.00 0.00 0.00 65 1015.7
20260507043730 5 355 0.0 4.8 0.00 0.00 0.00 65 1015.9
20260507043224 5 355 0.0 4.8 0.00 0.00 0.00 64 1016.0
20260507042714 5 355 0.0 6.4 0.00 0.03 0.00 64 1016.2
20260507042212 5 355 0.0 6.4 0.00 0.03 0.00 64 1016.2
20260507041712 5 355 1.6 6.4 0.00 0.03 0.00 63 1016.5
20260507041211 5 355 1.6 6.4 0.00 0.03 0.00 62 1016.3
20260507040717 6 355 1.6 6.4 0.00 0.03 0.00 60 1016.6
20260507040209 6 355 0.0 4.8 0.00 0.03 0.00 61 1016.6
20260507035711 6 355 1.6 6.4 0.00 0.03 0.00 60 1016.7
20260507035206 6 355 1.6 8.0 0.00 0.03 0.00 60 1016.8
20260507034659 6 355 1.6 9.7 0.00 0.03 0.00 59 1017.0
20260507034148 7 355 3.2 9.7 0.00 0.03 0.00 58 1017.0
20260507033653 7 355 3.2 9.7 0.00 0.03 0.00 57 1017.1
20260507033151 7 355 4.8 14.5 0.00 0.03 0.00 56 1017.2
20260507032648 7 0 4.8 14.5 0.00 0.03 0.00 56 1017.2
20260507032144 7 5 6.4 12.9 0.00 0.03 0.00 55 1017.2
20260507031644 7 5 6.4 12.9 0.00 0.03 0.00 55 1017.3
20260507031138 8 15 6.4 14.5 0.00 0.03 0.00 54 1017.4
20260507030634 8 19 6.4 14.5 0.00 0.03 0.00 53 1017.3
20260507030133 8 24 4.8 14.5 0.00 0.03 0.00 51 1017.3
20260507025635 8 5 4.8 14.5 0.00 0.03 0.00 48 1017.2
20260507025131 8 252 4.8 9.7 0.00 0.03 0.00 40 1017.0
20260507024632 8 249 6.4 9.7 0.00 0.03 0.00 42 1016.5